STARLINK-38178, 100201

Orbit data source: Space-Track

STARLINK-38178, 100201 is a payload satellite owned by SpaceX/Seattle (US) in SSO that was launched on Sat, 01 Aug 2026 UTC launched from the Air Force Western Test Range (AFWTR). Payload-class satellites include a variety of spacecraft equipped with specific instruments for various scientific and technological missions. These include communications satellites like Starlink; space stations such as the ISS; scientific satellites like the Hubble; Earth observation satellites from companies like Planet Labs, Umbra, and HawkEye 360; GPS; miniature CubeSats for education and research; and military/defense satellites.

Not visible in the next 10 days
Identifier
100201, 2026-175Y
Orbit
SSO
Country
Flag of USUS
Related business
Manufacturer
SpaceX/Seattle
Mission
Operational spacecraft
Bus & Motor
STARLINK V2MO, Unknown motor
Mass
575 kg wet, ~530 kg dry
Launch date (UTC)
2026-08-01 (2 months ago)
Launch vehicle
Unknown
Launch site
Air Force Western Test Range (AFWTR)
Object type
Payload
Rocket body
Debris
Shape & HBR
BOX + PAN, 17.7 m
Radar Cross Section
Large (>1 m²)

Expand to show TLE details & history
Last TLE update: 7 hours ago

TLE from 7 hours ago
0 STARLINK-38178
1 A0201U 26175Y   26263.95059902 -.00378000  00000-0 -44065-2 0  9993
2 A0201  97.2840 106.3554 0003913  59.6815 300.4830 15.62780962  9248
Epoch: 2026-09-20T22:48Z
TLE epoch observation values (Epoch: 2026-09-20T22:48:51.755Z)
Latitude
-0.00004°
Longitude
124.30233°
Altitude
381.439 km
Speed
7.682 km/s
True Right ascension
07h 05m 25s
True Declination
0° 00' 00"
Sunlit
Object was in daylight at epoch
Visualization orbit readout
Latitude
Unknown
Longitude
Unknown
Altitude
Unknown
Speed
Unknown
Apparent Right ascension
Unknown
Apparent Declination
Unknown
Sunlit
N/A
Visualization observer readout
Local Sidereal Time
23:13:07
Azimuth
Unknown
Elevation
Unknown
Doppler factor
Unknown
Orbital elements
Apogee altitude
379.175 km
Perigee altitude
373.889 km
Semi-major axis
6,754.669 km
Eccentricity
0.00039
Inclination
97.284°
RAAN
106.3554°
Arg. of periapsis
59.6815°
True anomaly
300.44435°
Mean anomaly
300.483°
Eccentric anomaly
300.46368°
Mean motion
3.90964 °/min
Orbital period
92.08 mins
BSTAR
-0.0044065
Loading maneuver chart data...
Computing Atmospheric mass density...
Loading historical data...
Loading historical data...
Loading historical data...
Loading historical data...
Loading historical data...
Loading historical data...
Loading historical data...

Documentation

Showing up to 5 results
|